Volver al catálogo

COSMOS 917 DEB

ActivoHEO
NORAD 27883·DEBRIS·🇷🇺 Russia

Lanzado Jun 16, 1977 desde Plesetsk Cosmodrome

Loading…

Próximos Pases (próximas 24 horas)

TLE

ActualizadoSource: Space-Track

Época: Sep 11, 2026, 19:35 UTC

1 27883U 77047F   26254.81647518  .00001039  00000-0  12818-2 0  9997
2 27883  60.0583 205.4365 7475938  58.6328 353.3436  2.02412802177151

Sigue COSMOS 917 DEB en tiempo real con AllMySat

Download on the App Store